Home > Weather > Barquisimeto > Past weeks

Flag for Venezuela Past Weather in Barquisimeto, Venezuela — Yesterday and Last 2 Weeks

Now
86 °F

Partly sunny.


Feels Like: 85 °F
Forecast: 69 / 89 °F
Wind: 15 mph from East

Location: Barquisimeto Airport

Current Time: Jul 29, 2016 at 3:47:33 PM

Latest Report: Jul 29, 2016 at 3:00 PM


Visibility: N/A

Pressure: 29.95 "Hg (28.09 "Hg at 569m altitude)

Humidity: 40%

Dew Point: 59 °F

Location of BarquisimetoLocation

Past Weather in Barquisimeto — Graph

°F

Barquisimeto Temperature Yesterday

Maximum temperature yesterday: 84 °F (at 2:00 PM)
Minimum temperature yesterday: 70 °F (at 6:00 AM)
Average temperature yesterday: 76 °F

High & Low Weather Summary for the Past Weeks

 TemperatureHumidityPressure
High90 °F (Jul 22, 3:00 PM)94% (Jul 16, 9:00 AM)30.15 "Hg (Jul 16, 9:00 AM)
Low68 °F (Jul 18, 7:00 AM)33% (Jul 18, 5:00 PM)29.92 "Hg (Jul 26, 5:00 PM)
Average77 °F72%30.02 "Hg
* Reported Jul 14 2:00 PM — Jul 29 2:00 PM, Barquisimeto, Weather by CustomWeather, © 2016

Note: Actual official high and low records may vary slightly from our data, if they occured in-between our weather recording intervals... More about our weather records

Advertising

Barquisimeto Weather History for the Previous 24 Hours

Scroll right to see more
 ConditionsComfort  
Time TempWeatherWind HumidityBarometerVisibility
2:00 PM
Fri, Jul 29
86 °FPartly sunny.16 mph40%30.01 "HgN/A
1:00 PM86 °FPassing clouds.14 mph49%30.04 "HgN/A
12:00 PM82 °FPassing clouds.13 mph55%30.07 "HgN/A
11:00 AM82 °FPassing clouds.13 mph55%30.07 "HgN/A
10:00 AM79 °FPassing clouds.7 mph65%30.07 "HgN/A
9:00 AM79 °FPassing clouds.7 mph65%30.04 "HgN/A
8:00 AM73 °FBroken clouds.5 mph78%30.04 "HgN/A
7:00 AM70 °FPartly sunny.3 mph88%30.01 "HgN/A
6:00 AM70 °FPartly sunny.3 mph88%30.01 "HgN/A
5:00 AM70 °FPassing clouds.5 mph88%30.01 "HgN/A
2:00 AM70 °FPassing clouds.5 mph88%30.01 "HgN/A
11:00 PM
Thu, Jul 28
72 °FPassing clouds.5 mph88%30.07 "HgN/A
10:00 PM72 °FPassing clouds.5 mph88%30.04 "HgN/A
9:00 PM72 °FPartly cloudy.6 mph88%30.04 "HgN/A
8:00 PM73 °FPartly cloudy.7 mph83%30.01 "HgN/A
7:00 PM75 °FPassing clouds.7 mph78%29.98 "HgN/A
6:00 PM77 °FPartly sunny.9 mph69%29.98 "HgN/A
5:00 PM81 °FPartly sunny.17 mph62%29.98 "HgN/A
4:00 PM82 °FBroken clouds.9 mph58%29.98 "HgN/A
3:00 PM84 °FBroken clouds.12 mph55%29.98 "HgN/A
Weather by CustomWeather, © 2016

See weather overviewHow to use our weather pages